User: anonymous   Login
Location: Unspecified
(0.0000°N, 0.0000°E)
Time: 00:48:10
(UTC+00:00)
Language:

TBA - TO BE ASSIGNED - Orbit

View from above orbital plane
View from above orbital plane
View from above satellite
View from above satellite

Ground track
Ground track

The orbit is defined by the following mean orbital elements,

1 67404U          26145.47817569 +.00000000 +00000-0 +44505-3 0 00000
2 67404  43.0003 164.0389 0001447 272.9432  87.1254 15.27586269    07
Epoch (UTC): 25 May 2026 11:28:34
Eccentricity: 0.0001447
inclination: 43.0003°
perigee height: 482 km
apogee height: 484 km
right ascension of ascending node: 164.0389°
argument of perigee: 272.9432°
revolutions per day: 15.27586269
mean anomaly at epoch: 87.1254°

The dashed part of the orbit path shows where the satellite is in the earth's shadow,  

DLR